St. Petersburg, FL

10:17 AM EDT on June 27, 2017 (GMT -0400)
Whitted

Weather History for KSPG - April, 2014

Change the Weather History Date:

Friday, April 11, 2014

  Actual Average Record
Temperature  
Mean Temperature 74 °F -  
Max Temperature 84 °F 78 °F 88 °F (1953)
Min Temperature 66 °F 63 °F 51 °F (1960)
Cooling Degree Days 9    
Growing Degree Days 24 (Base 50)    
Moisture  
Dew Point 60 °F    
Average Humidity 62    
Maximum Humidity 78    
Minimum Humidity 44    
Precipitation  
Precipitation 0.00 in - - ()
Sea Level Pressure  
Sea Level Pressure 30.18 in    
Wind  
Wind Speed 8 mph (East)    
Max Wind Speed 13 mph    
Max Gust Speed -    
Visibility 10 miles    
Events      
Averages and records for this station are not official NWS values.
T = Trace of Precipitation, MM = Missing Value Source: NWS Daily Summary

Daily Weather History Graph

Daily Weather History Graph

Search for Another Location

Airport or City:

Trip Planner

Search our weather history database for the weather conditions in past years. The results will help you decide how hot, cold, wet, or windy it might be!

Date:

Astronomy

Apr. 11, 2014 Rise Set
Actual Time 7:09 AM EDT 7:53 PM EDT
Civil Twilight 6:46 AM EDT 8:17 PM EDT
Nautical Twilight 6:18 AM EDT 8:45 PM EDT
Astronomical Twilight 5:49 AM EDT 9:13 PM EDT
Moon 4:49 PM EDT (4/11) 4:46 AM EDT (4/11)
Length of Visible Light 13h 31m
Length of Day
12h 43m
Waxing Gibbous, 87% of the Moon is Illuminated
Apr 11
Waxing Gibbous
Apr 15
Full
Apr 22
Last Quarter
Apr 29
New
May 6
First Quarter

Hourly Weather History & Observations

Time (EDT) Temp. Heat Index Dew Point Humidity Pressure Visibility Wind Dir Wind Speed Gust Speed Precip Events Conditions
12:53 AM 70.0 °F - 55.9 °F 61% 30.25 in 10.0 mi SE 10.4 mph - N/A   Overcast
1:53 AM 69.1 °F - 55.0 °F 61% 30.23 in 10.0 mi SE 10.4 mph - N/A   Mostly Cloudy
2:53 AM 69.1 °F - 55.0 °F 61% 30.21 in 10.0 mi SE 10.4 mph - N/A   Partly Cloudy
3:53 AM 68.0 °F - 55.0 °F 63% 30.19 in 10.0 mi SE 6.9 mph - N/A   Clear
4:53 AM 66.9 °F - 54.0 °F 63% 30.18 in 10.0 mi SE 8.1 mph - N/A   Clear
5:53 AM 66.9 °F - 55.0 °F 66% 30.19 in 10.0 mi ESE 8.1 mph - N/A   Clear
6:53 AM 66.9 °F - 57.0 °F 70% 30.20 in 10.0 mi ESE 5.8 mph - N/A   Clear
7:53 AM 68.0 °F - 59.0 °F 73% 30.23 in 10.0 mi East 9.2 mph - N/A   Clear
8:53 AM 69.1 °F - 60.1 °F 73% 30.23 in 10.0 mi East 11.5 mph - N/A   Clear
9:53 AM 71.1 °F - 62.1 °F 73% 30.24 in 10.0 mi East 9.2 mph - N/A   Clear
10:53 AM 73.0 °F - 62.1 °F 68% 30.25 in 10.0 mi East 9.2 mph - N/A   Clear
11:53 AM 75.9 °F - 62.1 °F 62% 30.24 in 10.0 mi ENE 9.2 mph - N/A   Clear
12:53 PM 78.1 °F - 60.1 °F 54% 30.22 in 10.0 mi NE 5.8 mph - N/A   Clear
1:53 PM 79.0 °F - 60.1 °F 52% 30.19 in 10.0 mi ENE 4.6 mph - N/A   Clear
2:53 PM 82.0 °F 82.1 °F 59.0 °F 45% 30.16 in 10.0 mi NNE 3.5 mph - N/A   Clear
3:53 PM 82.9 °F 82.8 °F 59.0 °F 44% 30.13 in 10.0 mi Calm Calm - N/A   Clear
4:53 PM 82.9 °F 82.8 °F 59.0 °F 44% 30.12 in 10.0 mi Calm Calm - N/A   Clear
5:53 PM 82.9 °F 82.8 °F 59.0 °F 44% 30.11 in 10.0 mi Calm Calm - N/A   Clear
6:53 PM 79.0 °F - 60.1 °F 52% 30.10 in 10.0 mi North 8.1 mph - N/A   Mostly Cloudy
7:53 PM 75.9 °F - 59.0 °F 56% 30.12 in 10.0 mi North 10.4 mph - N/A   Mostly Cloudy
8:53 PM 75.0 °F - 61.0 °F 62% 30.14 in 10.0 mi NNE 5.8 mph - N/A   Mostly Cloudy
9:07 PM 75.0 °F - 64.9 °F 71% 30.14 in 10.0 mi SE 12.7 mph - 0.00 in   Mostly Cloudy
9:30 PM 75.0 °F - 64.9 °F 71% 30.15 in 10.0 mi SE 12.7 mph - 0.00 in   Mostly Cloudy
9:53 PM 73.9 °F - 64.9 °F 73% 30.15 in 10.0 mi SE 10.4 mph - 0.00 in   Mostly Cloudy
10:53 PM 73.0 °F - 64.9 °F 76% 30.16 in 10.0 mi ESE 8.1 mph - N/A   Overcast
11:53 PM 72.0 °F - 64.9 °F 78% 30.15 in 10.0 mi ESE 9.2 mph - N/A   Partly Cloudy